2019-093E (44883 NORAD) Tracking and Keplerian Element Data

This shows tracking and keplerian element data for the satellite.

Feedback or suggestion? Click here.




ElementValue
Catalog44883
Name2019-093E
Epoch Orbit505
Epoch Day23.22601029
Epoch Year2020
RAAN100.172
Inclination97.9746
Eccentricity0.0001375
Argument of Perigee97.6793
Mean Anonmoly262.4621
Mean Motion14.81497022
Decay Rate-7.41E-06
L11 44883U 19093E 20023.22601029 -.00000741 00000-0 -87784-4 0 9990
L22 44883 97.9746 100.1720 0001375 97.6793 262.4621 14.81497022 5050

Live tracking and technical data element details for 2019-093E (NORAD 44883). 2019-093E can be tracked NOW for your location showing map with azimuth and elevation plus other details from your city location.

Track the satellite on the map from your city or location and see movement details for azimuth, elevation, latitude, longitude, range, height, and movement on the map or in text.







IsCatalogInMostPopularTable: catalog: 44883, numindb: 9
Update: records affected: 1



GetName: 44883 2019-093E

Hit Count: updated at: Fri, 24 Jan 2020 10:25:32 GMT